CW7485 Weather Reports


time (UTC)temp
F
wind
direction
speed
knots
gust
knots
rain 1hr
in
rain 24hr
in
rain mn
in
humidity
%
barometer
mb
20260906144537 74 325 0.9 5.2 0.00 0.00 0.00 82 1019.3
20260906143036 74 27 0.0 3.5 0.00 0.00 0.00 84 1019.2
20260906134538 71 54 0.0 1.7 0.00 0.00 0.00 86 1019.5
20260906133038 71 103 0.0 2.6 0.00 0.00 0.00 88 1019.4
20260906123106 65 0 0.0 3.5 0.00 0.00 0.00 97 1019.0
20260906114536 65 0 0.0 2.6 0.00 0.00 0.00 97 1018.9
20260906113037 65 0 0.0 0.9 0.00 0.00 0.00 96 1018.8
20260906071536 68 0 0.0 2.6 0.00 0.00 0.00 95 1017.7
20260906063036 69 0 0.0 2.6 0.00 0.00 0.00 93 1018.1
20260905233038 78 0 0.0 0.0 0.00 0.00 0.00 84 1015.5
20260905224547 80 0 0.0 2.6 0.00 0.00 0.00 79 1015.3
20260905221534 80 24 2.6 8.7 0.00 0.00 0.00 78 1015.7
20260905204537 80 75 1.7 8.7 0.00 0.00 0.00 82 1015.1
20260905193035 80 39 0.9 4.3 0.00 0.00 0.00 85 1015.5
20260905183043 78 103 0.0 3.5 0.00 0.00 0.00 88 1015.7
20260905180036 78 0 0.0 2.6 0.00 0.00 0.00 88 1015.8
20260905171535 78 0 0.0 1.7 0.00 0.00 0.00 88 1016.1
20260905170036 78 98 0.0 3.5 0.00 0.00 0.00 88 1016.0
20260905163038 76 90 0.9 5.2 0.00 0.00 0.00 91 1016.3
20260905161536 77 72 0.9 5.2 0.00 0.00 0.00 90 1016.0